Location: Brantley
(31.5822°N, 86.2569°W)
Time: 12:53:30
(UTC+00:00)

Vanguard 2 - Pass Details

Date: 25 February 2026
Orbit: 553 x 2896 km, 32.9° (Epoch: 17 March)

Event Time Altitude Azimuth Distance (km) Brightness Sun altitude
Rises 05:13:01 0° 203° (SSW) 6,611 - -65.2°
Reaches altitude 10° 05:19:17 10° 190° (S) 5,362 - -65.8°
Maximum altitude 05:29:24 21° 149° (SSE) 3,875 - -66.5°
Drops below altitude 10° 05:37:14 10° 105° (ESE) 4,065 - -67.0°
Sets 05:41:01 0° 90° (E) 4,677 - -67.1°
